contact:dominique.lefevre@mio.osupytheas.fr, maurice.libes@osupytheas.fr, didier.mallarino@osupytheas.fr
Project:EMSO http://www.emso-fr.org/EMSO-France
Depth: 2436.0 m
Title:EMSO Ligure Ouest : Data MII capteur AQUADOPP
Date,Latitude,Longitude,X_East,Y_North,Z_Up,Amplitude_X,Amplitude_Y,Amplitude_Z,Batterie,SoundSpeed,Heading,Pitch,Roll,Pressure,TIS,Speed,Direction
, degrees North, degrees East, m.s-1, m.s-1,m.s-1, 1, 1, 1, Volt, m.s-1, degree, degree, degree, dbar, degree_C, m.s-1, degree
2021-01-13T00:04:03,42.805,6.029,0.014,-0.046,-0.002,107.0,107.0,103.0,13.3,1505.2,326.5,-0.7,1.8,2470.364,13.3,0.048,163.1
2021-01-13T00:07:03,42.805,6.029,-0.001,-0.043,0.004,107.0,107.0,103.0,13.3,1505.3,325.4,-0.7,1.8,2470.308,13.31,0.043,181.3
2021-01-13T00:10:03,42.805,6.029,0.001,-0.054,-0.002,107.0,106.0,103.0,13.4,1505.3,326.4,-0.7,1.8,2470.283,13.31,0.054,178.9
2021-01-13T00:13:03,42.805,6.029,0.01,-0.067,-0.031,106.0,106.0,103.0,13.3,1505.3,325.6,-0.7,1.8,2470.275,13.32,0.067,171.5
2021-01-13T00:16:03,42.805,6.029,0.003,-0.042,0.0,106.0,108.0,103.0,13.4,1505.3,325.4,-0.7,1.8,2470.291,13.32,0.042,175.9
2021-01-13T00:19:03,42.805,6.029,0.014,-0.044,-0.037,107.0,107.0,103.0,13.3,1505.3,325.2,-0.7,1.8,2470.296,13.32,0.046,162.4
2021-01-13T00:22:03,42.805,6.029,0.005,-0.049,-0.037,108.0,106.0,103.0,13.4,1505.3,322.7,-0.7,1.8,2470.308,13.32,0.049,174.2
2021-01-13T00:25:03,42.805,6.029,0.024,-0.043,0.02,106.0,106.0,103.0,13.3,1505.3,324.9,-0.7,1.8,2470.292,13.32,0.049,150.8
2021-01-13T00:28:03,42.805,6.029,0.005,-0.041,-0.003,106.0,107.0,103.0,13.3,1505.3,325.0,-0.7,1.9,2470.285,13.32,0.041,173.0
2021-01-13T00:31:03,42.805,6.029,-0.033,-0.035,-0.002,106.0,107.0,104.0,13.4,1505.3,326.4,-0.7,1.8,2470.26,13.32,0.048,223.3
2021-01-13T00:34:03,42.805,6.029,-0.021,-0.056,0.013,108.0,108.0,103.0,13.4,1505.3,322.4,-0.7,1.8,2470.287,13.32,0.059,200.6
2021-01-13T00:37:03,42.805,6.029,0.001,-0.023,0.016,106.0,107.0,103.0,13.4,1505.3,324.8,-0.7,1.8,2470.258,13.32,0.023,177.5
2021-01-13T00:40:03,42.805,6.029,0.002,-0.055,0.012,106.0,108.0,103.0,13.4,1505.3,322.7,-0.7,1.8,2470.282,13.32,0.055,177.9
2021-01-13T00:43:03,42.805,6.029,0.004,-0.042,-0.009,107.0,107.0,103.0,13.4,1505.3,326.5,-0.7,1.8,2470.232,13.32,0.042,174.6
2021-01-13T00:46:03,42.805,6.029,-0.009,-0.031,0.005,107.0,107.0,104.0,13.4,1505.3,325.1,-0.7,1.8,2470.282,13.32,0.032,196.2
2021-01-13T00:49:03,42.805,6.029,0.001,-0.027,-0.014,107.0,107.0,102.0,13.4,1505.3,327.9,-0.7,1.8,2470.239,13.32,0.027,177.9
2021-01-13T00:52:03,42.805,6.029,0.016,-0.041,0.002,107.0,109.0,103.0,13.3,1505.3,322.7,-0.7,1.9,2470.241,13.32,0.044,158.7
2021-01-13T00:55:03,42.805,6.029,0.028,-0.009,0.029,108.0,107.0,104.0,13.4,1505.3,326.5,-0.7,1.8,2470.247,13.32,0.029,107.8
2021-01-13T00:58:03,42.805,6.029,-0.011,-0.04,-0.031,107.0,109.0,104.0,13.4,1505.3,324.0,-0.7,1.8,2470.245,13.32,0.041,195.4
2021-01-13T01:04:03,42.805,6.029,-0.016,-0.027,-0.007,109.0,108.0,104.0,13.4,1505.2,323.2,-0.7,1.8,2470.312,13.3,0.031,210.7
2021-01-13T01:07:03,42.805,6.029,-0.018,-0.016,-0.007,108.0,108.0,103.0,13.4,1505.3,324.7,-0.7,1.8,2470.267,13.31,0.024,228.4
2021-01-13T01:10:03,42.805,6.029,-0.019,-0.018,-0.02,107.0,107.0,104.0,13.4,1505.3,324.6,-0.7,1.8,2470.256,13.32,0.026,226.5
2021-01-13T01:13:03,42.805,6.029,-0.031,0.003,-0.042,108.0,108.0,103.0,13.4,1505.3,327.5,-0.7,1.8,2470.292,13.32,0.031,275.5
2021-01-13T01:16:03,42.805,6.029,-0.001,-0.033,-0.01,107.0,107.0,104.0,13.4,1505.3,323.4,-0.7,1.8,2470.31,13.32,0.033,181.7
2021-01-13T01:19:03,42.805,6.029,0.008,-0.008,-0.016,108.0,107.0,104.0,13.4,1505.3,324.2,-0.7,1.8,2470.228,13.32,0.011,135.0
2021-01-13T01:22:03,42.805,6.029,0.008,-0.037,0.002,107.0,108.0,103.0,13.4,1505.3,327.6,-0.7,1.8,2470.299,13.32,0.037,167.8
2021-01-13T01:25:03,42.805,6.029,-0.005,-0.034,-0.001,107.0,107.0,104.0,13.4,1505.3,324.0,-0.7,1.8,2470.23,13.32,0.034,188.4
2021-01-13T01:28:03,42.805,6.029,-0.028,-0.016,0.001,107.0,107.0,103.0,13.4,1505.3,323.4,-0.7,1.8,2470.261,13.32,0.032,240.3
2021-01-13T01:31:03,42.805,6.029,-0.041,-0.011,-0.029,108.0,107.0,103.0,13.4,1505.3,324.9,-0.7,1.8,2470.24,13.32,0.042,255.0
2021-01-13T01:34:03,42.805,6.029,-0.024,-0.016,-0.016,107.0,107.0,104.0,13.4,1505.3,324.4,-0.7,1.8,2470.273,13.32,0.028,236.3
2021-01-13T01:37:03,42.805,6.029,0.01,-0.022,-0.02,107.0,108.0,104.0,13.3,1505.3,325.6,-0.7,1.8,2470.225,13.32,0.024,155.6
2021-01-13T01:40:03,42.805,6.029,-0.01,-0.034,-0.023,107.0,108.0,103.0,13.4,1505.3,327.1,-0.7,1.8,2470.288,13.32,0.035,196.4
2021-01-13T01:43:03,42.805,6.029,-0.013,-0.038,-0.002,106.0,108.0,104.0,13.4,1505.3,327.1,-0.7,1.8,2470.248,13.32,0.04,198.9
2021-01-13T01:46:03,42.805,6.029,-0.005,-0.036,0.018,108.0,106.0,103.0,13.3,1505.3,327.4,-0.7,1.8,2470.263,13.33,0.036,187.9
2021-01-13T01:49:03,42.805,6.029,-0.02,-0.041,-0.025,107.0,108.0,103.0,13.3,1505.3,327.7,-0.7,1.8,2470.278,13.32,0.045,206.0
2021-01-13T01:52:03,42.805,6.029,-0.007,-0.017,-0.017,107.0,107.0,104.0,13.4,1505.3,326.3,-0.7,1.8,2470.282,13.32,0.018,202.4
2021-01-13T01:55:03,42.805,6.029,-0.012,-0.002,-0.058,106.0,109.0,104.0,13.3,1505.3,326.2,-0.7,1.8,2470.262,13.33,0.012,260.5
2021-01-13T01:58:03,42.805,6.029,0.014,-0.033,0.011,107.0,108.0,102.0,13.4,1505.3,326.0,-0.7,1.8,2470.244,13.33,0.035,157.0
2021-01-13T02:04:03,42.805,6.029,-0.017,-0.009,-0.01,107.0,109.0,104.0,13.4,1505.3,328.0,-0.7,1.8,2470.287,13.31,0.019,242.1
2021-01-13T02:07:03,42.805,6.029,0.024,-0.026,0.025,106.0,109.0,103.0,13.4,1505.3,325.8,-0.7,1.8,2470.295,13.31,0.035,137.3
2021-01-13T02:10:03,42.805,6.029,-0.028,-0.028,-0.004,107.0,109.0,103.0,13.3,1505.3,324.5,-0.7,1.8,2470.317,13.32,0.039,225.0
2021-01-13T02:13:03,42.805,6.029,-0.032,-0.015,-0.018,107.0,110.0,104.0,13.3,1505.3,326.6,-0.7,1.8,2470.275,13.32,0.035,244.9
2021-01-13T02:16:03,42.805,6.029,0.005,-0.02,-0.003,107.0,107.0,103.0,13.3,1505.3,325.4,-0.7,1.8,2470.284,13.32,0.02,166.0
2021-01-13T02:19:03,42.805,6.029,-0.013,-0.029,-0.013,108.0,113.0,102.0,13.4,1505.3,325.2,-0.7,1.8,2470.288,13.32,0.031,204.1
2021-01-13T02:22:03,42.805,6.029,-0.034,-0.046,0.012,107.0,108.0,103.0,13.3,1505.3,325.9,-0.7,1.8,2470.277,13.32,0.057,216.5
2021-01-13T02:25:03,42.805,6.029,-0.013,-0.023,0.015,107.0,108.0,103.0,13.3,1505.3,327.0,-0.7,1.8,2470.308,13.33,0.026,209.5
2021-01-13T02:28:03,42.805,6.029,-0.016,-0.024,-0.023,107.0,109.0,103.0,13.3,1505.3,325.2,-0.7,1.8,2470.285,13.33,0.028,213.7
2021-01-13T02:31:03,42.805,6.029,-0.009,-0.03,-0.001,107.0,111.0,104.0,13.4,1505.3,323.9,-0.7,1.8,2470.282,13.33,0.031,196.7
2021-01-13T02:34:03,42.805,6.029,0.009,-0.006,0.015,108.0,110.0,104.0,13.4,1505.3,324.9,-0.7,1.8,2470.3,13.33,0.01,123.7
2021-01-13T02:37:03,42.805,6.029,0.0,-0.03,0.015,108.0,111.0,103.0,13.3,1505.3,327.7,-0.7,1.8,2470.265,13.33,0.03,180.0
2021-01-13T02:40:03,42.805,6.029,-0.003,-0.035,0.014,107.0,111.0,102.0,13.3,1505.3,326.0,-0.7,1.8,2470.298,13.33,0.035,184.9
2021-01-13T02:43:03,42.805,6.029,-0.036,-0.041,-0.043,106.0,110.0,104.0,13.4,1505.3,326.9,-0.7,1.8,2470.285,13.33,0.054,221.3
2021-01-13T02:46:03,42.805,6.029,-0.037,-0.009,-0.024,107.0,111.0,103.0,13.4,1505.3,326.2,-0.7,1.8,2470.314,13.33,0.038,256.3
2021-01-13T02:49:03,42.805,6.029,-0.011,-0.008,-0.007,107.0,112.0,105.0,13.3,1505.3,324.0,-0.7,1.8,2470.297,13.33,0.013,234.0
2021-01-13T02:52:03,42.805,6.029,0.001,-0.023,0.002,107.0,111.0,104.0,13.3,1505.3,324.5,-0.7,1.8,2470.276,13.33,0.023,177.5
2021-01-13T02:55:03,42.805,6.029,0.036,-0.015,0.011,107.0,111.0,103.0,13.4,1505.3,326.1,-0.7,1.9,2470.303,13.33,0.039,112.6
2021-01-13T02:58:03,42.805,6.029,0.032,-0.021,0.033,106.0,110.0,104.0,13.3,1505.3,327.6,-0.7,1.8,2470.301,13.33,0.038,123.3
2021-01-13T03:04:03,42.805,6.029,-0.025,-0.015,-0.021,107.0,111.0,104.0,13.4,1505.3,327.5,-0.8,1.8,2470.339,13.31,0.029,239.0
2021-01-13T03:07:03,42.805,6.029,-0.02,-0.011,-0.018,106.0,111.0,104.0,13.4,1505.3,325.1,-0.7,1.8,2470.365,13.32,0.022,241.2
2021-01-13T03:10:03,42.805,6.029,0.029,-0.033,0.0,106.0,111.0,103.0,13.4,1505.3,325.1,-0.7,1.8,2470.322,13.32,0.043,138.7
2021-01-13T03:13:03,42.805,6.029,-0.007,-0.016,-0.019,108.0,109.0,103.0,13.4,1505.3,325.9,-0.7,1.8,2470.332,13.33,0.017,203.6
2021-01-13T03:16:03,42.805,6.029,0.004,-0.011,0.014,107.0,110.0,104.0,13.4,1505.3,328.0,-0.7,1.8,2470.322,13.33,0.011,160.0
2021-01-13T03:19:03,42.805,6.029,0.011,-0.015,0.006,106.0,112.0,102.0,13.3,1505.3,323.6,-0.7,1.8,2470.37,13.33,0.018,143.7
2021-01-13T03:22:03,42.805,6.029,-0.011,-0.031,0.004,107.0,111.0,103.0,13.4,1505.3,326.9,-0.7,1.8,2470.342,13.33,0.032,199.5
2021-01-13T03:25:03,42.805,6.029,0.022,-0.026,0.013,107.0,112.0,103.0,13.4,1505.3,327.0,-0.7,1.9,2470.334,13.33,0.034,139.8
2021-01-13T03:28:03,42.805,6.029,0.041,-0.012,0.036,108.0,110.0,104.0,13.4,1505.3,326.1,-0.7,1.8,2470.312,13.33,0.042,106.3
2021-01-13T03:31:03,42.805,6.029,-0.03,-0.032,-0.017,107.0,108.0,103.0,13.4,1505.3,326.3,-0.7,1.8,2470.354,13.33,0.043,223.1
2021-01-13T03:34:03,42.805,6.029,0.01,-0.02,-0.003,107.0,110.0,103.0,13.3,1505.3,325.5,-0.7,1.8,2470.348,13.33,0.022,153.4
2021-01-13T03:37:03,42.805,6.029,0.029,-0.026,0.014,107.0,109.0,103.0,13.4,1505.3,325.4,-0.7,1.8,2470.348,13.33,0.038,131.9
2021-01-13T03:40:03,42.805,6.029,0.031,-0.021,0.013,107.0,108.0,104.0,13.4,1505.3,326.1,-0.7,1.8,2470.356,13.33,0.037,124.1
2021-01-13T03:43:03,42.805,6.029,0.016,-0.008,-0.004,107.0,108.0,104.0,13.4,1505.3,327.3,-0.7,1.8,2470.326,13.33,0.017,116.6
2021-01-13T03:46:03,42.805,6.029,0.015,-0.019,0.042,107.0,108.0,103.0,13.4,1505.3,326.8,-0.7,1.9,2470.319,13.33,0.024,141.7
2021-01-13T03:49:03,42.805,6.029,0.025,-0.004,-0.007,107.0,108.0,104.0,13.4,1505.3,323.9,-0.7,1.8,2470.33,13.33,0.025,99.1
2021-01-13T03:52:03,42.805,6.029,0.024,-0.015,0.013,108.0,108.0,104.0,13.3,1505.3,327.7,-0.7,1.8,2470.398,13.33,0.028,122.0
2021-01-13T03:55:03,42.805,6.029,0.015,-0.024,-0.003,107.0,109.0,103.0,13.4,1505.3,324.4,-0.7,1.8,2470.324,13.33,0.028,148.0
2021-01-13T03:58:03,42.805,6.029,0.029,-0.027,0.032,108.0,108.0,105.0,13.4,1505.3,324.6,-0.7,1.8,2470.329,13.33,0.039,133.0
2021-01-13T04:04:03,42.805,6.029,0.014,-0.012,-0.015,108.0,109.0,103.0,13.4,1505.3,325.2,-0.7,1.8,2470.401,13.31,0.018,130.6
2021-01-13T04:10:03,42.805,6.029,0.026,-0.009,0.001,108.0,108.0,104.0,13.4,1505.2,327.1,-0.7,1.8,2470.4,13.3,0.027,109.1
2021-01-13T04:13:03,42.805,6.029,0.022,-0.036,-0.005,107.0,108.0,104.0,13.4,1505.3,326.1,-0.7,1.8,2470.435,13.31,0.042,148.6
2021-01-13T04:16:03,42.805,6.029,0.01,-0.001,0.038,107.0,108.0,104.0,13.4,1505.3,327.5,-0.7,1.8,2470.454,13.31,0.01,95.7
2021-01-13T04:19:03,42.805,6.029,0.015,-0.011,0.003,106.0,108.0,105.0,13.4,1505.3,325.9,-0.7,1.8,2470.422,13.32,0.018,126.3
2021-01-13T04:22:03,42.805,6.029,-0.003,-0.004,0.029,107.0,108.0,103.0,13.4,1505.3,324.3,-0.7,1.9,2470.416,13.32,0.005,216.9
2021-01-13T04:25:03,42.805,6.029,0.033,-0.021,0.004,106.0,108.0,104.0,13.3,1505.3,328.0,-0.7,1.8,2470.43,13.32,0.039,122.5
2021-01-13T04:28:03,42.805,6.029,0.045,-0.026,0.006,107.0,108.0,104.0,13.4,1505.3,327.5,-0.7,1.8,2470.396,13.32,0.051,120.0
2021-01-13T04:31:03,42.805,6.029,0.021,-0.019,-0.003,107.0,107.0,102.0,13.3,1505.3,324.5,-0.7,1.8,2470.392,13.32,0.028,132.1
2021-01-13T04:34:03,42.805,6.029,0.004,-0.006,0.029,107.0,109.0,103.0,13.4,1505.3,325.2,-0.7,1.8,2470.434,13.32,0.007,146.3
2021-01-13T04:37:03,42.805,6.029,-0.008,-0.022,0.0,106.0,109.0,103.0,13.4,1505.3,327.2,-0.7,1.8,2470.421,13.32,0.023,200.0
2021-01-13T04:40:03,42.805,6.029,0.036,-0.005,0.012,107.0,108.0,104.0,13.4,1505.3,327.6,-0.7,1.8,2470.435,13.32,0.036,97.9
2021-01-13T04:43:03,42.805,6.029,0.025,-0.015,-0.013,107.0,108.0,104.0,13.3,1505.3,322.5,-0.7,1.8,2470.435,13.32,0.029,121.0
2021-01-13T04:46:03,42.805,6.029,0.018,-0.017,0.006,108.0,109.0,102.0,13.4,1505.3,324.7,-0.7,1.8,2470.408,13.32,0.024,133.4
2021-01-13T04:49:03,42.805,6.029,0.013,-0.011,0.006,107.0,109.0,103.0,13.3,1505.3,327.5,-0.7,1.8,2470.421,13.32,0.017,130.2
2021-01-13T04:52:03,42.805,6.029,0.004,-0.013,-0.009,107.0,107.0,104.0,13.3,1505.3,323.8,-0.7,1.8,2470.457,13.32,0.013,162.9
2021-01-13T04:55:03,42.805,6.029,0.035,-0.009,0.001,106.0,109.0,103.0,13.4,1505.3,324.7,-0.7,1.9,2470.453,13.32,0.036,104.4
2021-01-13T04:58:03,42.805,6.029,0.027,-0.033,0.004,107.0,109.0,103.0,13.3,1505.3,325.7,-0.7,1.9,2470.44,13.32,0.042,140.7
2021-01-13T05:04:03,42.805,6.029,0.024,-0.016,0.029,107.0,108.0,103.0,13.4,1505.2,325.7,-0.7,1.8,2470.476,13.3,0.028,123.7
2021-01-13T05:07:03,42.805,6.029,0.036,-0.007,0.032,107.0,108.0,103.0,13.4,1505.3,322.4,-0.7,1.8,2470.434,13.31,0.036,101.0
2021-01-13T05:10:03,42.805,6.029,0.029,-0.026,0.004,107.0,109.0,103.0,13.4,1505.3,324.6,-0.7,1.8,2470.456,13.32,0.038,131.9
2021-01-13T05:13:03,42.805,6.029,0.044,-0.018,-0.013,106.0,109.0,104.0,13.4,1505.3,326.1,-0.7,1.9,2470.476,13.32,0.047,112.2
2021-01-13T05:16:03,42.805,6.029,0.02,-0.001,-0.033,107.0,108.0,103.0,13.4,1505.3,327.7,-0.7,1.8,2470.489,13.32,0.02,92.9
2021-01-13T05:19:03,42.805,6.029,0.014,-0.009,0.025,107.0,109.0,103.0,13.3,1505.3,323.4,-0.7,1.8,2470.46,13.32,0.016,122.7
2021-01-13T05:22:03,42.805,6.029,0.031,-0.024,-0.017,106.0,108.0,103.0,13.3,1505.3,325.2,-0.7,1.8,2470.493,13.32,0.039,127.7
2021-01-13T05:25:03,42.805,6.029,0.005,-0.023,-0.027,107.0,108.0,103.0,13.4,1505.3,326.2,-0.6,1.9,2470.457,13.32,0.023,167.7
2021-01-13T05:28:03,42.805,6.029,0.0,-0.018,0.044,107.0,109.0,103.0,13.3,1505.3,323.1,-0.7,1.8,2470.48,13.32,0.018,180.0
2021-01-13T05:31:03,42.805,6.029,0.02,-0.029,0.024,108.0,109.0,103.0,13.4,1505.3,324.0,-0.7,1.8,2470.478,13.32,0.035,145.4
2021-01-13T05:34:03,42.805,6.029,0.072,-0.022,0.032,106.0,108.0,103.0,13.4,1505.3,327.6,-0.7,1.8,2470.501,13.32,0.075,107.0
2021-01-13T05:37:03,42.805,6.029,0.006,-0.011,0.013,107.0,110.0,103.0,13.4,1505.3,325.9,-0.7,1.8,2470.46,13.32,0.012,151.4
2021-01-13T05:40:03,42.805,6.029,0.023,-0.013,0.004,107.0,108.0,103.0,13.4,1505.3,326.3,-0.7,1.8,2470.503,13.32,0.026,119.5
2021-01-13T05:43:03,42.805,6.029,0.039,-0.003,0.012,106.0,108.0,103.0,13.4,1505.3,323.2,-0.7,1.8,2470.496,13.32,0.039,94.4
2021-01-13T05:46:03,42.805,6.029,0.003,-0.01,-0.007,106.0,107.0,103.0,13.4,1505.3,325.9,-0.7,1.8,2470.464,13.32,0.01,163.3
2021-01-13T05:49:03,42.805,6.029,-0.009,-0.034,-0.042,107.0,109.0,103.0,13.3,1505.3,326.1,-0.7,1.8,2470.5,13.32,0.035,194.8
2021-01-13T05:52:03,42.805,6.029,0.046,-0.021,0.019,107.0,107.0,104.0,13.4,1505.3,324.2,-0.7,1.8,2470.489,13.32,0.05,114.5
2021-01-13T05:55:03,42.805,6.029,0.044,-0.01,0.023,107.0,108.0,104.0,13.4,1505.3,326.6,-0.7,1.8,2470.484,13.32,0.045,102.8
2021-01-13T05:58:03,42.805,6.029,0.038,-0.01,0.001,106.0,108.0,103.0,13.4,1505.3,324.4,-0.7,1.8,2470.502,13.32,0.039,104.7
2021-01-13T06:04:03,42.805,6.029,0.042,-0.022,-0.026,106.0,108.0,104.0,13.3,1505.2,327.0,-0.7,1.8,2470.515,13.3,0.047,117.6
2021-01-13T06:07:03,42.805,6.029,0.027,-0.044,-0.025,107.0,108.0,104.0,13.3,1505.3,326.0,-0.7,1.9,2470.521,13.31,0.051,148.5
2021-01-13T06:10:03,42.805,6.029,0.03,-0.015,0.027,107.0,109.0,103.0,13.4,1505.3,325.6,-0.7,1.8,2470.498,13.31,0.033,116.6
2021-01-13T06:16:03,42.805,6.029,0.037,0.003,0.024,108.0,109.0,103.0,13.4,1505.2,325.3,-0.8,1.8,2470.569,13.3,0.037,85.4
2021-01-13T06:19:03,42.805,6.029,0.015,-0.015,-0.008,107.0,109.0,104.0,13.4,1505.3,328.0,-0.7,1.9,2470.564,13.31,0.021,135.0
2021-01-13T06:22:03,42.805,6.029,0.01,-0.02,-0.013,107.0,109.0,103.0,13.3,1505.3,326.0,-0.7,1.8,2470.567,13.31,0.022,153.4
2021-01-13T06:25:03,42.805,6.029,0.016,0.0,0.01,107.0,107.0,102.0,13.4,1505.3,324.8,-0.7,1.8,2470.524,13.32,0.016,90.0
2021-01-13T06:28:03,42.805,6.029,0.037,-0.013,0.053,106.0,108.0,104.0,13.3,1505.3,326.5,-0.7,1.8,2470.524,13.32,0.039,109.4
2021-01-13T06:31:03,42.805,6.029,0.017,-0.028,0.03,107.0,110.0,103.0,13.3,1505.3,326.9,-0.7,1.8,2470.559,13.32,0.032,148.7
2021-01-13T06:34:03,42.805,6.029,0.018,0.0,-0.023,108.0,108.0,103.0,13.4,1505.3,326.0,-0.7,1.8,2470.56,13.32,0.018,90.0
2021-01-13T06:37:03,42.805,6.029,0.041,-0.028,-0.017,107.0,108.0,104.0,13.4,1505.3,326.9,-0.7,1.9,2470.559,13.32,0.049,124.3
2021-01-13T06:40:03,42.805,6.029,0.032,-0.011,0.013,106.0,107.0,104.0,13.3,1505.3,322.9,-0.7,1.8,2470.503,13.32,0.033,109.0
2021-01-13T06:43:03,42.805,6.029,0.028,-0.003,-0.012,107.0,108.0,104.0,13.3,1505.3,324.2,-0.7,1.8,2470.56,13.32,0.028,96.1
2021-01-13T06:46:03,42.805,6.029,0.022,-0.019,-0.015,107.0,108.0,104.0,13.3,1505.3,326.0,-0.8,1.8,2470.534,13.32,0.029,130.8
2021-01-13T06:49:03,42.805,6.029,0.044,-0.028,0.059,106.0,108.0,104.0,13.3,1505.3,326.9,-0.7,1.8,2470.539,13.32,0.052,122.5
2021-01-13T06:52:03,42.805,6.029,0.014,-0.022,-0.005,107.0,109.0,104.0,13.4,1505.3,326.3,-0.7,1.8,2470.535,13.32,0.026,147.5
2021-01-13T06:55:03,42.805,6.029,0.025,-0.039,0.004,107.0,108.0,103.0,13.3,1505.3,326.7,-0.7,1.8,2470.531,13.32,0.046,147.3
2021-01-13T06:58:03,42.805,6.029,0.007,-0.023,0.008,107.0,108.0,104.0,13.4,1505.3,323.3,-0.7,1.8,2470.537,13.32,0.024,163.1
2021-01-13T07:04:03,42.805,6.029,0.037,-0.045,0.02,107.0,109.0,103.0,13.4,1505.2,324.0,-0.7,1.8,2470.586,13.3,0.058,140.6
2021-01-13T07:07:03,42.805,6.029,0.018,-0.024,-0.014,108.0,108.0,103.0,13.3,1505.3,324.0,-0.7,1.8,2470.59,13.31,0.03,143.1
2021-01-13T07:10:03,42.805,6.029,0.01,-0.018,0.0,107.0,108.0,103.0,13.4,1505.3,327.8,-0.7,1.8,2470.555,13.31,0.02,150.9
2021-01-13T07:13:03,42.805,6.029,0.009,-0.022,-0.007,107.0,107.0,105.0,13.3,1505.3,323.0,-0.7,1.8,2470.553,13.32,0.023,157.8
2021-01-13T07:16:03,42.805,6.029,0.022,-0.006,0.009,107.0,108.0,103.0,13.4,1505.3,325.9,-0.7,1.8,2470.575,13.32,0.022,105.3
2021-01-13T07:19:03,42.805,6.029,0.019,-0.019,0.0,108.0,108.0,103.0,13.4,1505.3,328.3,-0.7,1.8,2470.492,13.32,0.026,135.0
2021-01-13T07:22:03,42.805,6.029,0.028,-0.035,0.022,106.0,107.0,105.0,13.4,1505.3,323.8,-0.7,1.8,2470.521,13.32,0.044,141.3
2021-01-13T07:25:03,42.805,6.029,0.018,-0.02,0.0,107.0,108.0,104.0,13.4,1505.3,328.2,-0.7,1.8,2470.552,13.32,0.026,138.0
2021-01-13T07:28:03,42.805,6.029,0.006,-0.031,0.003,108.0,109.0,104.0,13.4,1505.3,324.7,-0.7,1.8,2470.521,13.32,0.031,169.0
2021-01-13T07:31:03,42.805,6.029,0.023,-0.024,-0.009,107.0,108.0,104.0,13.3,1505.3,325.1,-0.7,1.8,2470.527,13.32,0.033,136.2
2021-01-13T07:34:03,42.805,6.029,0.033,-0.025,0.009,107.0,108.0,104.0,13.4,1505.3,324.3,-0.7,1.8,2470.552,13.32,0.041,127.1
2021-01-13T07:37:03,42.805,6.029,0.0,-0.01,-0.001,107.0,110.0,105.0,13.4,1505.3,326.0,-0.7,1.9,2470.543,13.32,0.01,180.0
2021-01-13T07:40:03,42.805,6.029,0.033,-0.038,0.011,107.0,108.0,103.0,13.4,1505.3,323.1,-0.7,1.8,2470.553,13.32,0.05,139.0
2021-01-13T07:43:03,42.805,6.029,0.012,-0.027,0.02,108.0,109.0,103.0,13.4,1505.3,326.2,-0.7,1.8,2470.514,13.32,0.029,156.0
2021-01-13T07:46:03,42.805,6.029,0.036,-0.022,0.024,107.0,108.0,105.0,13.4,1505.3,327.9,-0.7,1.8,2470.522,13.32,0.042,121.4
2021-01-13T07:49:03,42.805,6.029,0.019,-0.037,-0.003,108.0,108.0,104.0,13.3,1505.3,325.5,-0.7,1.8,2470.541,13.32,0.041,152.8
2021-01-13T07:52:03,42.805,6.029,0.018,-0.018,0.001,108.0,108.0,103.0,13.3,1505.3,326.6,-0.7,1.8,2470.581,13.32,0.025,135.0
2021-01-13T07:55:03,42.805,6.029,0.026,-0.012,0.005,108.0,109.0,103.0,13.3,1505.3,325.2,-0.7,1.8,2470.557,13.32,0.028,114.8
2021-01-13T07:58:03,42.805,6.029,0.043,-0.028,0.013,107.0,109.0,104.0,13.3,1505.3,322.7,-0.7,1.9,2470.547,13.32,0.051,123.1
2021-01-13T08:04:03,42.805,6.029,0.013,-0.043,-0.032,107.0,108.0,104.0,13.4,1505.2,325.3,-0.7,1.8,2470.604,13.3,0.044,163.2
2021-01-13T08:07:03,42.805,6.029,0.032,-0.026,0.02,106.0,108.0,104.0,13.4,1505.3,323.2,-0.7,1.8,2470.574,13.31,0.041,129.1
2021-01-13T08:10:03,42.805,6.029,0.02,-0.026,0.01,107.0,109.0,104.0,13.4,1505.3,327.8,-0.7,1.8,2470.549,13.32,0.032,142.4
2021-01-13T08:13:03,42.805,6.029,0.042,-0.025,-0.026,107.0,108.0,103.0,13.3,1505.3,326.3,-0.7,1.8,2470.577,13.32,0.048,120.8
2021-01-13T08:16:03,42.805,6.029,0.02,-0.049,0.01,107.0,109.0,103.0,13.4,1505.3,325.9,-0.7,1.8,2470.558,13.32,0.052,157.8
2021-01-13T08:19:03,42.805,6.029,0.053,-0.04,0.021,106.0,108.0,105.0,13.4,1505.3,325.9,-0.7,1.8,2470.609,13.32,0.066,127.0
2021-01-13T08:22:03,42.805,6.029,0.038,-0.029,0.03,107.0,107.0,104.0,13.4,1505.3,327.1,-0.7,1.8,2470.526,13.32,0.047,127.3
2021-01-13T08:25:03,42.805,6.029,0.032,-0.026,-0.014,106.0,108.0,103.0,13.4,1505.3,324.1,-0.7,1.8,2470.562,13.32,0.041,129.1
2021-01-13T08:28:03,42.805,6.029,0.032,-0.045,-0.003,106.0,107.0,105.0,13.3,1505.3,324.4,-0.7,1.8,2470.551,13.32,0.055,144.6
2021-01-13T08:31:03,42.805,6.029,0.055,-0.042,0.012,108.0,108.0,102.0,13.3,1505.3,325.6,-0.7,1.8,2470.549,13.32,0.069,127.4
2021-01-13T08:34:03,42.805,6.029,0.001,-0.04,-0.006,106.0,107.0,104.0,13.3,1505.3,326.5,-0.7,1.8,2470.558,13.32,0.04,178.6
2021-01-13T08:37:03,42.805,6.029,0.033,-0.03,-0.029,108.0,107.0,103.0,13.4,1505.3,324.9,-0.7,1.8,2470.575,13.32,0.044,132.3
2021-01-13T08:40:03,42.805,6.029,0.037,-0.032,0.028,106.0,108.0,103.0,13.4,1505.3,326.5,-0.7,1.8,2470.592,13.32,0.048,130.9
2021-01-13T08:43:03,42.805,6.029,0.035,-0.031,-0.02,107.0,108.0,104.0,13.4,1505.3,324.0,-0.7,1.8,2470.537,13.32,0.046,131.5
2021-01-13T08:46:03,42.805,6.029,0.038,-0.046,0.022,107.0,107.0,104.0,13.3,1505.3,325.7,-0.7,1.8,2470.551,13.32,0.059,140.4
2021-01-13T08:49:03,42.805,6.029,0.04,-0.042,0.012,107.0,108.0,103.0,13.4,1505.3,323.7,-0.7,1.8,2470.513,13.32,0.057,136.4
2021-01-13T08:52:03,42.805,6.029,0.03,-0.026,0.02,106.0,107.0,103.0,13.4,1505.3,324.7,-0.7,1.8,2470.544,13.32,0.039,130.9
2021-01-13T08:55:03,42.805,6.029,0.036,-0.037,-0.03,106.0,108.0,104.0,13.3,1505.3,324.4,-0.7,1.8,2470.533,13.32,0.051,135.8
2021-01-13T08:58:03,42.805,6.029,0.018,-0.033,0.018,108.0,106.0,103.0,13.4,1505.3,327.7,-0.7,1.8,2470.53,13.32,0.037,151.4
2021-01-13T09:04:03,42.805,6.029,0.031,-0.037,-0.011,106.0,107.0,104.0,13.3,1505.2,326.7,-0.7,1.8,2470.549,13.3,0.048,140.0
2021-01-13T09:07:03,42.805,6.029,0.023,-0.022,-0.026,106.0,107.0,103.0,13.4,1505.3,324.8,-0.7,1.8,2470.527,13.31,0.031,133.7
2021-01-13T09:10:03,42.805,6.029,0.021,-0.042,0.006,106.0,107.0,102.0,13.4,1505.3,324.3,-0.7,1.8,2470.524,13.31,0.046,153.4
2021-01-13T09:13:03,42.805,6.029,0.02,-0.029,-0.011,107.0,107.0,103.0,13.4,1505.3,328.0,-0.7,1.8,2470.574,13.32,0.035,145.4
2021-01-13T09:16:03,42.805,6.029,0.036,-0.021,0.038,107.0,107.0,103.0,13.4,1505.3,325.7,-0.7,1.8,2470.549,13.32,0.041,120.3
2021-01-13T09:19:03,42.805,6.029,0.018,-0.036,0.022,106.0,107.0,103.0,13.4,1505.3,324.8,-0.7,1.8,2470.508,13.32,0.04,153.4
2021-01-13T09:22:03,42.805,6.029,0.037,-0.029,-0.011,106.0,106.0,102.0,13.4,1505.3,325.7,-0.7,1.8,2470.522,13.32,0.047,128.1
2021-01-13T09:25:03,42.805,6.029,0.01,-0.044,0.016,108.0,106.0,103.0,13.4,1505.3,323.8,-0.7,1.8,2470.547,13.32,0.045,167.2
2021-01-13T09:28:03,42.805,6.029,0.025,-0.065,-0.027,107.0,106.0,102.0,13.4,1505.3,326.5,-0.7,1.8,2470.532,13.32,0.069,159.0
2021-01-13T09:31:03,42.805,6.029,0.042,-0.04,-0.006,107.0,107.0,103.0,13.3,1505.3,324.8,-0.7,1.8,2470.505,13.32,0.057,133.6
2021-01-13T09:34:03,42.805,6.029,0.054,-0.031,-0.01,107.0,106.0,103.0,13.4,1505.3,324.6,-0.7,1.8,2470.509,13.32,0.062,119.9
2021-01-13T09:37:03,42.805,6.029,0.035,-0.034,0.009,107.0,108.0,103.0,13.4,1505.3,324.9,-0.7,1.8,2470.542,13.32,0.048,134.2
2021-01-13T09:40:03,42.805,6.029,0.023,-0.034,0.031,106.0,107.0,104.0,13.4,1505.3,327.6,-0.7,1.9,2470.515,13.32,0.041,145.9
2021-01-13T09:43:03,42.805,6.029,0.023,-0.06,0.001,107.0,107.0,104.0,13.4,1505.3,328.1,-0.7,1.9,2470.545,13.32,0.064,159.0
2021-01-13T09:46:03,42.805,6.029,0.01,-0.029,-0.049,109.0,107.0,103.0,13.4,1505.3,327.7,-0.7,1.8,2470.518,13.32,0.03,161.0
2021-01-13T09:49:03,42.805,6.029,0.025,-0.044,-0.021,105.0,109.0,103.0,13.4,1505.3,326.0,-0.7,1.8,2470.512,13.32,0.05,150.4
2021-01-13T09:52:03,42.805,6.029,0.022,-0.039,0.001,108.0,107.0,104.0,13.4,1505.3,327.5,-0.7,1.8,2470.491,13.32,0.044,150.6
2021-01-13T09:55:03,42.805,6.029,0.024,-0.053,-0.011,106.0,107.0,103.0,13.4,1505.3,328.4,-0.7,1.8,2470.497,13.32,0.058,155.6
2021-01-13T09:58:03,42.805,6.029,0.045,-0.024,0.044,108.0,108.0,103.0,13.4,1505.3,326.2,-0.7,1.8,2470.498,13.32,0.051,118.1
2021-01-13T10:04:03,42.805,6.029,0.019,-0.043,-0.012,108.0,108.0,104.0,13.4,1505.2,323.0,-0.7,1.8,2470.567,13.3,0.047,156.2